TimeCDT,TemperatureF,Dew PointF,Humidity,Sea Level PressureIn,VisibilityMPH,Wind Direction,Wind SpeedMPH,Gust SpeedMPH,PrecipitationIn,Events,Conditions,WindDirDegrees,DateUTC
12:08 AM,70.0,58.1,66,-9999,-9999.0,SSE,10.4,-,N/A,,Unknown,160,2013-08-26 05:08:00
12:28 AM,72.0,57.0,59,-9999,-9999.0,South,10.4,-,N/A,,Unknown,170,2013-08-26 05:28:00
12:48 AM,72.0,58.1,62,-9999,-9999.0,South,10.4,-,N/A,,Unknown,170,2013-08-26 05:48:00
1:08 AM,72.0,58.1,62,-9999,-9999.0,South,10.4,-,N/A,,Unknown,170,2013-08-26 06:08:00
1:28 AM,72.0,57.0,59,-9999,-9999.0,South,13.8,-,N/A,,Unknown,170,2013-08-26 06:28:00
1:48 AM,71.1,57.0,61,-9999,-9999.0,South,11.5,-,N/A,,Unknown,170,2013-08-26 06:48:00
2:08 AM,71.1,57.0,61,-9999,-9999.0,South,10.4,-,N/A,,Unknown,170,2013-08-26 07:08:00
2:28 AM,71.1,57.0,61,-9999,-9999.0,South,11.5,-,N/A,,Unknown,180,2013-08-26 07:28:00
2:48 AM,70.0,57.0,63,-9999,-9999.0,South,9.2,-,N/A,,Unknown,180,2013-08-26 07:48:00
3:08 AM,-9999,-9999,N/A,-9999,-9999.0,North,-9999.0,-,N/A,,Unknown,0,2013-08-26 08:08:00
3:28 AM,70.0,56.1,61,-9999,-9999.0,South,11.5,-,N/A,,Unknown,180,2013-08-26 08:28:00
3:48 AM,70.0,56.1,61,-9999,-9999.0,South,10.4,-,N/A,,Unknown,180,2013-08-26 08:48:00
4:08 AM,70.0,56.1,61,-9999,-9999.0,South,11.5,-,N/A,,Unknown,180,2013-08-26 09:08:00
4:28 AM,70.0,56.1,61,-9999,-9999.0,South,10.4,-,N/A,,Unknown,180,2013-08-26 09:28:00
4:48 AM,69.1,56.1,63,-9999,-9999.0,South,10.4,-,N/A,,Unknown,180,2013-08-26 09:48:00
5:08 AM,69.1,56.1,63,-9999,-9999.0,South,9.2,-,N/A,,Unknown,190,2013-08-26 10:08:00
5:28 AM,69.1,55.0,61,-9999,-9999.0,South,10.4,-,N/A,,Unknown,190,2013-08-26 10:28:00
5:48 AM,68.0,56.1,66,-9999,-9999.0,South,10.4,-,N/A,,Unknown,190,2013-08-26 10:48:00
6:08 AM,68.0,56.1,66,-9999,-9999.0,South,9.2,-,N/A,,Unknown,190,2013-08-26 11:08:00
6:28 AM,68.0,55.0,63,-9999,-9999.0,SSW,10.4,-,N/A,,Unknown,200,2013-08-26 11:28:00
6:48 AM,68.0,55.0,63,-9999,-9999.0,SSW,10.4,-,N/A,,Unknown,210,2013-08-26 11:48:00
7:08 AM,68.0,56.1,66,-9999,-9999.0,SSW,9.2,-,N/A,,Unknown,210,2013-08-26 12:08:00
7:28 AM,68.0,56.1,66,-9999,-9999.0,SSW,8.1,-,N/A,,Unknown,200,2013-08-26 12:28:00
7:48 AM,68.0,56.1,66,-9999,-9999.0,South,8.1,-,N/A,,Unknown,190,2013-08-26 12:48:00
8:08 AM,69.1,56.1,63,-9999,-9999.0,SSW,8.1,-,N/A,,Unknown,200,2013-08-26 13:08:00
8:28 AM,71.1,56.1,59,-9999,-9999.0,SSW,9.2,-,N/A,,Unknown,200,2013-08-26 13:28:00
8:48 AM,73.0,57.0,57,-9999,-9999.0,SSW,11.5,-,N/A,,Unknown,200,2013-08-26 13:48:00
9:08 AM,73.9,57.0,55,-9999,-9999.0,SSW,11.5,-,N/A,,Unknown,200,2013-08-26 14:08:00
9:28 AM,75.9,58.1,54,-9999,-9999.0,SSW,10.4,-,N/A,,Unknown,200,2013-08-26 14:28:00
9:48 AM,-9999,-9999,N/A,-9999,-9999.0,North,-9999.0,-,N/A,,Unknown,0,2013-08-26 14:48:00
10:08 AM,80.1,57.0,45,-9999,-9999.0,SSW,16.1,-,N/A,,Unknown,210,2013-08-26 15:08:00
10:28 AM,81.0,59.2,47,-9999,-9999.0,SSW,11.5,-,N/A,,Unknown,210,2013-08-26 15:28:00
10:48 AM,82.9,58.1,43,-9999,-9999.0,SSW,12.7,-,N/A,,Unknown,210,2013-08-26 15:48:00
11:08 AM,84.0,58.1,41,-9999,-9999.0,SSW,16.1,-,N/A,,Unknown,200,2013-08-26 16:08:00
11:28 AM,84.9,59.2,42,-9999,-9999.0,South,12.7,-,N/A,,Unknown,190,2013-08-26 16:28:00
11:48 AM,86.0,58.1,39,-9999,-9999.0,SSW,16.1,-,N/A,,Unknown,200,2013-08-26 16:48:00
12:08 PM,87.1,59.2,39,-9999,-9999.0,SSW,13.8,-,N/A,,Unknown,200,2013-08-26 17:08:00
12:28 PM,89.1,60.1,38,-9999,-9999.0,SW,11.5,-,N/A,,Unknown,230,2013-08-26 17:28:00
12:48 PM,89.1,58.1,35,-9999,-9999.0,SSW,13.8,-,N/A,,Unknown,210,2013-08-26 17:48:00
1:08 PM,90.0,59.2,35,-9999,-9999.0,SSW,10.4,-,N/A,,Unknown,200,2013-08-26 18:08:00
1:28 PM,91.0,58.1,33,-9999,-9999.0,SSW,16.1,-,N/A,,Unknown,200,2013-08-26 18:28:00
1:48 PM,91.0,60.1,35,-9999,-9999.0,South,11.5,-,N/A,,Unknown,190,2013-08-26 18:48:00
2:08 PM,91.0,59.2,34,-9999,-9999.0,South,17.3,-,N/A,,Unknown,170,2013-08-26 19:08:00
2:28 PM,91.9,60.1,34,-9999,-9999.0,South,10.4,-,N/A,,Unknown,170,2013-08-26 19:28:00
2:48 PM,91.9,60.1,34,-9999,-9999.0,SSE,17.3,-,N/A,,Unknown,160,2013-08-26 19:48:00
3:08 PM,91.9,58.1,32,-9999,-9999.0,South,11.5,-,N/A,,Unknown,180,2013-08-26 20:08:00
3:28 PM,93.0,59.2,32,-9999,-9999.0,South,15.0,-,N/A,,Unknown,170,2013-08-26 20:28:00
3:48 PM,91.9,60.1,34,-9999,-9999.0,SSE,15.0,-,N/A,,Unknown,160,2013-08-26 20:48:00
4:08 PM,91.9,57.0,31,-9999,-9999.0,South,13.8,-,N/A,,Unknown,170,2013-08-26 21:08:00
4:28 PM,91.9,57.0,31,-9999,-9999.0,SSE,18.4,-,N/A,,Unknown,160,2013-08-26 21:28:00
4:48 PM,91.9,57.0,31,-9999,-9999.0,South,16.1,-,N/A,,Unknown,170,2013-08-26 21:48:00
5:08 PM,91.0,58.1,33,-9999,-9999.0,SSE,15.0,-,N/A,,Unknown,160,2013-08-26 22:08:00
5:28 PM,91.9,57.0,31,-9999,-9999.0,South,16.1,-,N/A,,Unknown,180,2013-08-26 22:28:00
5:48 PM,91.0,57.0,32,-9999,-9999.0,South,17.3,-,N/A,,Unknown,170,2013-08-26 22:48:00
6:08 PM,90.0,58.1,34,-9999,-9999.0,SSE,15.0,-,N/A,,Unknown,160,2013-08-26 23:08:00
6:28 PM,89.1,58.1,35,-9999,-9999.0,SSE,13.8,-,N/A,,Unknown,160,2013-08-26 23:28:00
6:48 PM,89.1,58.1,35,-9999,-9999.0,SSE,16.1,-,N/A,,Unknown,160,2013-08-26 23:48:00
7:08 PM,87.1,59.2,39,-9999,-9999.0,SSE,12.7,-,N/A,,Unknown,160,2013-08-27 00:08:00
7:28 PM,86.0,58.1,39,-9999,-9999.0,SSE,13.8,-,N/A,,Unknown,150,2013-08-27 00:28:00
7:48 PM,84.9,57.0,38,-9999,-9999.0,SSE,12.7,-,N/A,,Unknown,150,2013-08-27 00:48:00
8:08 PM,82.9,56.1,40,-9999,-9999.0,SSE,13.8,-,N/A,,Unknown,160,2013-08-27 01:08:00
8:28 PM,81.0,57.0,44,-9999,-9999.0,SSE,12.7,-,N/A,,Unknown,150,2013-08-27 01:28:00
8:48 PM,80.1,56.1,44,-9999,-9999.0,SSE,11.5,-,N/A,,Unknown,150,2013-08-27 01:48:00
9:08 PM,78.1,56.1,47,-9999,-9999.0,SSE,11.5,-,N/A,,Unknown,160,2013-08-27 02:08:00
9:28 PM,77.0,55.0,47,-9999,-9999.0,SSE,11.5,-,N/A,,Unknown,160,2013-08-27 02:28:00
9:48 PM,75.0,55.0,50,-9999,-9999.0,SSE,10.4,-,N/A,,Unknown,160,2013-08-27 02:48:00
10:08 PM,73.9,55.0,52,-9999,-9999.0,SSE,11.5,-,N/A,,Unknown,160,2013-08-27 03:08:00
10:28 PM,73.9,56.1,54,-9999,-9999.0,SSE,12.7,-,N/A,,Unknown,160,2013-08-27 03:28:00
10:48 PM,-9999,-9999,N/A,-9999,-9999.0,North,-9999.0,-,N/A,,Unknown,0,2013-08-27 03:48:00
11:08 PM,73.9,56.1,54,-9999,-9999.0,South,10.4,-,N/A,,Unknown,170,2013-08-27 04:08:00
11:28 PM,73.9,56.1,54,-9999,-9999.0,SSE,13.8,-,N/A,,Unknown,160,2013-08-27 04:28:00
11:48 PM,73.9,56.1,54,-9999,-9999.0,South,13.8,-,N/A,,Unknown,170,2013-08-27 04:48:00